George, South Africa

12:30 PM SAST on August 20, 2017 (GMT +0200)
George

Weather History for FAGG - September, 2013

Change the Weather History Date:

Saturday, September 7, 2013

  Actual Average Record
Temperature  
Mean Temperature 60 °F -  
Max Temperature 73 °F 65 °F 91 °F (2006)
Min Temperature 46 °F 48 °F 41 °F (2005)
Degree Days  
Heating Degree Days 6    
Growing Degree Days 10 (Base 50)    
Moisture  
Dew Point 53 °F    
Average Humidity 79    
Maximum Humidity 94    
Minimum Humidity 50    
Precipitation  
Precipitation 0.00 in - - ()
Sea Level Pressure  
Sea Level Pressure 29.95 in    
Wind  
Wind Speed 4 mph ()    
Max Wind Speed 10 mph    
Max Gust Speed -    
Visibility 7.5 miles    
Events Fog    
Averages and records for this station are not official NWS values.
T = Trace of Precipitation, MM = Missing Value Source: Averaged Metar Reports

Daily Weather History Graph

Daily Weather History Graph

Search for Another Location

Airport or City:

Trip Planner

Search our weather history database for the weather conditions in past years. The results will help you decide how hot, cold, wet, or windy it might be!

Date:

Astronomy

Sep. 07, 2013 Rise Set
Actual Time 6:40 AM SAST 6:16 PM SAST
Civil Twilight 6:15 AM SAST 6:41 PM SAST
Nautical Twilight 5:46 AM SAST 7:10 PM SAST
Astronomical Twilight 5:17 AM SAST 7:39 PM SAST
Moon 7:28 AM SAST (9/7) 8:24 PM SAST (9/7)
Length of Visible Light 12h 25m
Length of Day
11h 35m
Waxing Crescent, 4% of the Moon is Illuminated
Sep 7
Waxing Crescent
Sep 12
First Quarter
Sep 19
Full
Sep 27
Last Quarter
Oct 5
New

Hourly Weather History & Observations

Time (SAST) Temp. Windchill Dew Point Humidity Pressure Visibility Wind Dir Wind Speed Gust Speed Precip Events Conditions
12:00 AM 50.0 °F - 46.4 °F 87% 30.09 in 5.6 mi WNW 3.5 mph - N/A Fog Patches of Fog
2:00 AM 48 °F - 46 °F 89% 30.09 in 6 mi NE 4.6 mph - -  
2:00 AM 48.2 °F - 46.4 °F 93% 30.06 in - NE 4.6 mph - N/A   Clear
3:00 AM 46.4 °F 45.2 °F 44.6 °F 93% 30.04 in - NW 3.5 mph - N/A   Clear
4:00 AM 48.2 °F - 46.4 °F 93% 30.01 in - NNE 2.3 mph - N/A   Clear
5:00 AM 46.4 °F - 44.6 °F 93% 30.01 in - Variable 1.2 mph - N/A   Clear
6:00 AM 46.4 °F 44.3 °F 44.6 °F 93% 29.98 in - West 4.6 mph - N/A   Clear
7:00 AM 46.4 °F 44.3 °F 44.6 °F 93% 30.01 in - WNW 4.6 mph - N/A   Clear
8:00 AM 53.6 °F - 50.0 °F 88% 30.01 in - NNW 3.5 mph - N/A   Clear
9:00 AM 60.8 °F - 53.6 °F 77% 29.98 in - Variable 2.3 mph - N/A   Clear
11:00 AM 67 °F - 54 °F 54% 29.94 in 12 mi ENE 4.6 mph - -  
11:00 AM 66.2 °F - 55.4 °F 68% 29.95 in - East 4.6 mph - N/A   Clear
12:00 PM 71.6 °F - 55.4 °F 57% 29.92 in - East 3.5 mph - N/A   Clear
1:00 PM 71.6 °F - 53.6 °F 53% 29.89 in - SSE 5.8 mph - N/A   Clear
2:00 PM 71 °F - 56 °F 50% 29.87 in 12 mi SSE 8.1 mph - -   Clear
2:00 PM 71.6 °F - 57.2 °F 60% 29.86 in - SSE 8.1 mph - N/A   Clear
3:00 PM 69.8 °F - 57.2 °F 64% 29.83 in - SSE 8.1 mph - N/A   Clear
4:00 PM 64.4 °F - 57.2 °F 77% 29.83 in - South 10.4 mph - N/A   Clear
5:00 PM 63 °F - 56 °F 73% 29.88 in 12 mi South 8.1 mph - -   Mostly Cloudy
5:00 PM 62.6 °F - 57.2 °F 82% 29.86 in 6.2 mi South 8.1 mph - N/A   Mostly Cloudy
6:00 PM 62.6 °F - 55.4 °F 77% 29.89 in 6.2 mi WSW 5.8 mph - N/A   Mostly Cloudy
7:00 PM 60.8 °F - 57.2 °F 88% 29.89 in 6.2 mi WSW 6.9 mph - N/A   Mostly Cloudy
8:00 PM 60 °F - 56 °F 83% 29.93 in 12 mi SW 8.1 mph - -   Mostly Cloudy
8:00 PM 60.8 °F - 57.2 °F 88% 29.92 in 6.2 mi SW 8.1 mph - N/A   Mostly Cloudy
9:00 PM 60.8 °F - 55.4 °F 82% 29.92 in 6.2 mi SW 3.5 mph - N/A   Overcast
10:00 PM 59.0 °F - 55.4 °F 88% 29.95 in 4.3 mi SW 8.1 mph - N/A   Overcast
11:00 PM 57.2 °F - 55.4 °F 94% 29.95 in 2.8 mi SW 10.4 mph - N/A   Overcast